Tracking 17857 objects as of 29-September-2016
HD Live streaming from Space Station
objects crossing your sky now

CZ-4 DEB


10-day predictions


NORAD ID: 26259
Int'l Code: 1999-057EV
Launch date: October 14, 1999
Source: People's Republic of China (PRC)
Launch site: Taiyaun Space Center, China (TSC)

Note: This is SATELLITE DEBRIS
Your satellite tracking list
Your tracking list is empty





NASA's NSSDC Master Catalog

Two Line Element Set (TLE):
1 26259U 99057EV  16272.92339363 +.00001140 +00000-0 +29386-3 0  9997
2 26259 098.5339 245.9836 0092643 106.0966 311.5728 14.49487547868026
Source of the keplerian elements: AFSPC

N2YO: 2245